TimeCDT,TemperatureF,Dew PointF,Humidity,Sea Level PressureIn,VisibilityMPH,Wind Direction,Wind SpeedMPH,Gust SpeedMPH,PrecipitationIn,Events,Conditions,WindDirDegrees,DateUTC
12:53 AM,34.0,19.9,56,30.38,10.0,North,4.6,-,N/A,,Mostly Cloudy,350,2012-10-06 05:53:00
1:53 AM,28.0,17.1,63,30.37,10.0,North,4.6,-,N/A,,Clear,350,2012-10-06 06:53:00
2:53 AM,28.0,18.0,66,30.38,10.0,North,6.9,-,N/A,,Clear,10,2012-10-06 07:53:00
3:53 AM,28.0,18.0,66,30.38,10.0,NNE,18.4,87.5,N/A,,Clear,30,2012-10-06 08:53:00
4:53 AM,26.1,18.0,71,30.37,10.0,WNW,3.5,-,N/A,,Clear,290,2012-10-06 09:53:00
5:53 AM,30.0,19.0,64,30.37,10.0,Variable,4.6,-,N/A,,Clear,0,2012-10-06 10:53:00
6:53 AM,28.9,19.0,67,30.36,10.0,North,11.5,42.6,N/A,,Partly Cloudy,10,2012-10-06 11:53:00
7:53 AM,28.9,19.0,67,30.41,10.0,Calm,Calm,-,N/A,,Overcast,0,2012-10-06 12:53:00
8:53 AM,30.9,21.0,67,30.44,10.0,WSW,3.5,-,N/A,,Overcast,240,2012-10-06 13:53:00
9:53 AM,34.0,21.0,59,30.44,10.0,NW,4.6,-,N/A,,Clear,310,2012-10-06 14:53:00
10:53 AM,36.0,19.0,50,30.45,10.0,NNW,5.8,-,N/A,,Overcast,330,2012-10-06 15:53:00
11:53 AM,36.0,19.0,50,30.45,10.0,North,9.2,-,N/A,,Overcast,350,2012-10-06 16:53:00
12:53 PM,37.9,19.0,47,30.43,10.0,North,8.1,-,N/A,,Mostly Cloudy,350,2012-10-06 17:53:00
1:53 PM,39.0,18.0,43,30.43,10.0,NNW,6.9,-,N/A,,Partly Cloudy,340,2012-10-06 18:53:00
2:53 PM,39.9,18.0,41,30.40,10.0,NNW,9.2,-,N/A,,Clear,340,2012-10-06 19:53:00
3:53 PM,42.8,17.6,36,30.33,10.0,NNW,8.1,-,N/A,,Clear,330,2012-10-06 20:53:00
4:53 PM,42.1,18.0,38,30.38,10.0,WNW,10.4,-,N/A,,Clear,300,2012-10-06 21:53:00
5:53 PM,42.8,19.4,39,30.31,10.0,West,8.1,-,N/A,,Clear,280,2012-10-06 22:53:00
6:53 PM,39.9,19.0,43,30.37,10.0,West,6.9,-,N/A,,Clear,280,2012-10-06 23:53:00
7:53 PM,35.1,24.1,64,30.38,10.0,West,6.9,-,N/A,,Clear,260,2012-10-07 00:53:00
8:53 PM,34.0,28.9,82,30.38,10.0,West,9.2,-,N/A,,Clear,270,2012-10-07 01:53:00
9:53 PM,32.0,28.0,85,30.38,10.0,West,9.2,-,N/A,,Clear,280,2012-10-07 02:53:00
10:53 PM,32.0,28.0,85,30.38,10.0,West,9.2,-,N/A,,Clear,280,2012-10-07 03:53:00
11:53 PM,28.9,26.1,89,30.37,10.0,West,9.2,-,N/A,,Clear,270,2012-10-07 04:53:00